When you browse on this site, cookies collect data to enhance your experience and personalize the content and advertising you see.
Visit our Privacy Policy to learn more. By continuing to use the site, you agree to this use of cookies and data.
  • In Romania
  • List of Countries
  • For 7 days
  • Water Temperature
  • Weather Map
  • Weather Widgets
  • user-avatar
    Login

    Hourly Weather Hobart

    Today, 15 September, Sunday

    Time Temperature Precipitation Wind Pressure Humidity
    00:00 +9°C° 0 mm 3 mps 743 mmHg 74%
    01:00 +9°C° 0 mm 3 mps 743 mmHg 83%
    02:00 +9°C° 0 mm 3 mps 743 mmHg 84%
    03:00 +10°C° 0 mm 2 mps 742 mmHg 85%
    04:00 +10°C° 0 mm 2 mps 742 mmHg 88%
    05:00 +10°C° 0 mm 2 mps 742 mmHg 85%
    06:00 +9°C° 0 mm 2 mps 743 mmHg 83%
    07:00 +9°C° 0 mm 2 mps 743 mmHg 81%
    08:00 +10°C° 0 mm 2 mps 743 mmHg 70%
    09:00 +12°C° 0 mm 2 mps 743 mmHg 59%
    10:00 +13°C° 0 mm 4 mps 744 mmHg 49%
    11:00 +13°C° 0 mm 3 mps 743 mmHg 47%
    12:00 +14°C° 0 mm 3 mps 743 mmHg 44%
    13:00 +15°C° 0 mm 2 mps 743 mmHg 42%
    14:00 +15°C° 0 mm 2 mps 742 mmHg 43%
    15:00 +15°C° 0 mm 2 mps 742 mmHg 44%
    16:00 +14°C° 0 mm 2 mps 741 mmHg 46%
    17:00 +12°C° 0 mm 2 mps 741 mmHg 53%
    18:00 +9°C° 0 mm 2 mps 742 mmHg 61%
    19:00 +8°C° 0 mm 2 mps 742 mmHg 68%
    20:00 +7°C° 0 mm 2 mps 741 mmHg 70%
    21:00 +7°C° 0 mm 3 mps 741 mmHg 72%
    22:00 +6°C° 0 mm 4 mps 740 mmHg 75%
    23:00 +6°C° 0 mm 4 mps 740 mmHg 76%

    Tomorrow, 16 September, Monday

    Time Temperature Precipitation Wind Pressure Humidity
    00:00 +6°C° 0 mm 5 mps 739 mmHg 76%
    01:00 +6°C° 0 mm 5 mps 739 mmHg 76%
    02:00 +5°C° 0 mm 6 mps 739 mmHg 72%
    03:00 +4°C° 0 mm 7 mps 739 mmHg 69%
    04:00 +3°C° 0 mm 9 mps 740 mmHg 66%
    05:00 +3°C° 0.7 mm 7 mps 741 mmHg 74%
    06:00 +2°C° 0.7 mm 6 mps 742 mmHg 82%
    07:00 +1°C° 0.7 mm 4 mps 744 mmHg 91%
    08:00 +2°C° 0 mm 5 mps 745 mmHg 79%
    09:00 +4°C° 0 mm 6 mps 746 mmHg 68%
    10:00 +5°C° 0 mm 7 mps 747 mmHg 57%
    11:00 +5°C° 0.1 mm 7 mps 747 mmHg 54%
    12:00 +7°C° 0.1 mm 6 mps 748 mmHg 51%
    13:00 +7°C° 0.1 mm 6 mps 748 mmHg 48%
    14:00 +7°C° 0 mm 6 mps 749 mmHg 50%
    15:00 +6°C° 0 mm 5 mps 750 mmHg 51%
    16:00 +6°C° 0 mm 5 mps 750 mmHg 53%
    17:00 +4°C° 0 mm 4 mps 751 mmHg 61%
    18:00 +3°C° 0 mm 4 mps 751 mmHg 68%
    19:00 +1°C° 0 mm 3 mps 752 mmHg 76%
    20:00 +1°C° 0 mm 3 mps 753 mmHg 79%
    21:00 0°C° 0 mm 3 mps 754 mmHg 83%
    22:00 0°C° 0 mm 3 mps 754 mmHg 86%
    23:00 0°C° 0 mm 3 mps 754 mmHg 87%

    Day after tomorrow, 17 September, Tuesday

    Time Temperature Precipitation Wind Pressure Humidity
    00:00 -1°C° 0 mm 3 mps 754 mmHg 88%
    01:00 -1°C° 0 mm 2 mps 755 mmHg 89%
    02:00 -1°C° 0 mm 2 mps 755 mmHg 90%
    03:00 -1°C° 0 mm 2 mps 754 mmHg 90%
    04:00 -1°C° 0 mm 2 mps 754 mmHg 91%
    05:00 0°C° 0 mm 3 mps 755 mmHg 89%
    06:00 0°C° 0 mm 3 mps 755 mmHg 87%
    07:00 0°C° 0 mm 3 mps 755 mmHg 85%
    08:00 +3°C° 0 mm 3 mps 755 mmHg 73%
    09:00 +5°C° 0 mm 3 mps 755 mmHg 61%
    10:00 +9°C° 0 mm 3 mps 756 mmHg 50%
    11:00 +10°C° 0 mm 3 mps 755 mmHg 46%
    12:00 +12°C° 0 mm 2 mps 755 mmHg 42%
    13:00 +13°C° 0 mm 2 mps 755 mmHg 39%
    14:00 +13°C° 0 mm 2 mps 755 mmHg 39%
    15:00 +13°C° 0 mm 2 mps 754 mmHg 39%
    16:00 +13°C° 0 mm 2 mps 754 mmHg 39%
    17:00 +10°C° 0 mm 2 mps 754 mmHg 48%
    18:00 +8°C° 0 mm 2 mps 755 mmHg 57%
    19:00 +5°C° 0 mm 2 mps 755 mmHg 65%
    20:00 +5°C° 0 mm 2 mps 756 mmHg 70%
    21:00 +4°C° 0 mm 2 mps 756 mmHg 75%
    22:00 +3°C° 0 mm 2 mps 756 mmHg 81%
    23:00 +3°C° 0 mm 2 mps 756 mmHg 83%

    18 September, Wednesday

    Time Temperature Precipitation Wind Pressure Humidity
    00:00 +2°C° 0 mm 2 mps 756 mmHg 86%
    01:00 +2°C° 0 mm 2 mps 756 mmHg 88%
    02:00 +2°C° 0 mm 2 mps 756 mmHg 89%
    03:00 +1°C° 0 mm 2 mps 756 mmHg 90%
    04:00 +1°C° 0 mm 2 mps 756 mmHg 91%
    05:00 +1°C° 0 mm 2 mps 756 mmHg 89%
    06:00 +1°C° 0 mm 2 mps 756 mmHg 86%
    07:00 +2°C° 0 mm 2 mps 756 mmHg 83%
    08:00 +5°C° 0 mm 2 mps 756 mmHg 71%
    09:00 +8°C° 0 mm 2 mps 756 mmHg 59%
    10:00 +12°C° 0 mm 2 mps 756 mmHg 47%
    11:00 +13°C° 0 mm 1 mps 756 mmHg 43%
    12:00 +15°C° 0 mm 1 mps 755 mmHg 38%
    13:00 +16°C° 0 mm 1 mps 755 mmHg 34%
    14:00 +16°C° 0 mm 2 mps 754 mmHg 37%
    15:00 +16°C° 0 mm 2 mps 754 mmHg 39%
    16:00 +16°C° 0 mm 2 mps 754 mmHg 42%
    17:00 +13°C° 0 mm 1 mps 754 mmHg 53%
    18:00 +10°C° 0 mm 1 mps 754 mmHg 64%
    19:00 +8°C° 0 mm 1 mps 754 mmHg 75%
    20:00 +7°C° 0 mm 1 mps 754 mmHg 76%
    21:00 +5°C° 0 mm 2 mps 754 mmHg 76%
    22:00 +5°C° 0 mm 2 mps 754 mmHg 76%
    23:00 +4°C° 0 mm 2 mps 754 mmHg 76%

    19 September, Thursday

    Time Temperature Precipitation Wind Pressure Humidity
    00:00 +3°C° 0 mm 3 mps 754 mmHg 76%
    01:00 +2°C° 0 mm 3 mps 753 mmHg 76%
    02:00 +2°C° 0 mm 3 mps 753 mmHg 77%
    03:00 +2°C° 0 mm 3 mps 752 mmHg 77%
    04:00 +2°C° 0 mm 3 mps 752 mmHg 77%
    05:00 +2°C° 0 mm 3 mps 752 mmHg 76%
    06:00 +2°C° 0 mm 3 mps 751 mmHg 75%
    07:00 +3°C° 0 mm 3 mps 751 mmHg 74%
    08:00 +7°C° 0 mm 3 mps 751 mmHg 65%
    09:00 +10°C° 0 mm 3 mps 750 mmHg 56%
    10:00 +14°C° 0 mm 4 mps 750 mmHg 47%
    11:00 +17°C° 0 mm 4 mps 749 mmHg 42%
    12:00 +19°C° 0 mm 5 mps 748 mmHg 38%
    13:00 +20°C° 0 mm 6 mps 748 mmHg 33%
    14:00 +20°C° 0 mm 6 mps 747 mmHg 37%
    15:00 +20°C° 0 mm 6 mps 746 mmHg 42%
    16:00 +19°C° 0 mm 5 mps 746 mmHg 46%
    17:00 +16°C° 0 mm 5 mps 746 mmHg 55%
    18:00 +15°C° 0 mm 5 mps 746 mmHg 65%
    19:00 +13°C° 0 mm 4 mps 746 mmHg 74%
    20:00 +12°C° 0 mm 4 mps 746 mmHg 77%
    21:00 +11°C° 0 mm 4 mps 746 mmHg 80%
    22:00 +11°C° 0 mm 3 mps 746 mmHg 83%
    23:00 +11°C° 0 mm 3 mps 745 mmHg 82%

    20 September, Friday

    Time Temperature Precipitation Wind Pressure Humidity
    00:00 +11°C° 0 mm 3 mps 745 mmHg 82%
    01:00 +11°C° 0 mm 3 mps 745 mmHg 81%
    02:00 +11°C° 0 mm 3 mps 744 mmHg 83%
    03:00 +11°C° 0 mm 3 mps 744 mmHg 85%
    04:00 +11°C° 0 mm 3 mps 743 mmHg 87%
    05:00 +11°C° 0 mm 3 mps 743 mmHg 87%
    06:00 +12°C° 0 mm 3 mps 743 mmHg 88%
    07:00 +12°C° 0 mm 3 mps 743 mmHg 88%
    08:00 +14°C° 0 mm 4 mps 743 mmHg 79%
    09:00 +16°C° 0 mm 5 mps 742 mmHg 69%
    10:00 +19°C° 0 mm 6 mps 742 mmHg 60%
    11:00 +19°C° 0 mm 6 mps 742 mmHg 57%
    12:00 +20°C° 0 mm 5 mps 742 mmHg 54%
    13:00 +20°C° 0 mm 5 mps 741 mmHg 51%
    14:00 +19°C° 0 mm 4 mps 742 mmHg 55%
    15:00 +17°C° 0 mm 4 mps 742 mmHg 60%
    16:00 +15°C° 0 mm 4 mps 742 mmHg 65%
    17:00 +13°C° 0.1 mm 3 mps 743 mmHg 71%
    18:00 +11°C° 0.1 mm 3 mps 743 mmHg 77%
    19:00 +10°C° 0.1 mm 3 mps 744 mmHg 83%
    20:00 +9°C° 0.1 mm 3 mps 745 mmHg 84%
    21:00 +8°C° 0.1 mm 2 mps 745 mmHg 85%
    22:00 +7°C° 0.1 mm 2 mps 745 mmHg 86%
    23:00 +6°C° 0 mm 2 mps 746 mmHg 88%
    Show more